DW3800 Weather Reports


time (UTC)temp
C
wind
direction
speed
KPH
gust
KPH
rain 1hr
cm
rain 24hr
cm
rain mn
cm
humidity
%
barometer
mb
20260901190457 30 165 0.0 3.2 0.00 0.00 0.00 47 1016.5
20260901185955 31 138 1.6 9.7 0.00 0.00 0.00 46 1016.5
20260901185449 31 226 1.6 9.7 0.00 0.00 0.00 45 1016.4
20260901184949 31 173 1.6 3.2 0.00 0.00 0.00 46 1016.6
20260901184444 31 186 1.6 8.0 0.00 0.00 0.00 46 1016.5
20260901183939 31 194 6.4 9.7 0.00 0.00 0.00 47 1016.8
20260901183439 30 311 1.6 4.8 0.00 0.00 0.00 48 1016.8
20260901182935 30 177 6.4 8.0 0.00 0.00 0.00 46 1017.0
20260901182431 30 265 0.0 4.8 0.00 0.00 0.00 49 1016.8
20260901181925 30 138 0.0 1.6 0.00 0.00 0.00 50 1017.0
20260901181420 30 235 6.4 12.9 0.00 0.00 0.00 49 1017.0
20260901180919 30 248 3.2 8.0 0.00 0.00 0.00 51 1017.2
20260901180418 30 121 1.6 8.0 0.00 0.00 0.00 50 1017.2
20260901175917 30 181 4.8 4.8 0.00 0.00 0.00 50 1017.3
20260901175412 29 174 1.6 3.2 0.00 0.00 0.00 52 1017.5
20260901174907 30 163 1.6 1.6 0.00 0.00 0.00 52 1017.3
20260901174403 30 140 1.6 8.0 0.00 0.00 0.00 51 1017.5
20260901173858 30 173 1.6 3.2 0.00 0.00 0.00 52 1017.6
20260901173353 30 124 0.0 3.2 0.00 0.00 0.00 53 1017.4
20260901172849 30 165 3.2 8.0 0.00 0.00 0.00 52 1017.5
20260901172349 29 134 1.6 8.0 0.00 0.00 0.00 53 1017.6
20260901171847 30 160 4.8 9.7 0.00 0.00 0.00 52 1017.8
20260901171346 29 230 1.6 4.8 0.00 0.00 0.00 52 1017.5
20260901170845 29 211 4.8 4.8 0.00 0.00 0.00 52 1017.6
20260901170340 29 195 4.8 9.7 0.00 0.00 0.00 54 1017.7
20260901165834 29 196 6.4 8.0 0.00 0.00 0.00 55 1017.6
20260901165328 29 237 3.2 4.8 0.00 0.00 0.00 55 1017.7
20260901164825 29 226 3.2 4.8 0.00 0.00 0.00 56 1017.6
20260901164320 29 121 0.0 3.2 0.00 0.00 0.00 57 1017.5
20260901163814 28 208 1.6 3.2 0.00 0.00 0.00 56 1017.6
20260901163309 28 112 1.6 3.2 0.00 0.00 0.00 58 1017.9
20260901162803 28 175 1.6 3.2 0.00 0.00 0.00 58 1017.7
20260901162306 28 170 0.0 1.6 0.00 0.00 0.00 58 1017.5
20260901161802 27 114 0.0 3.2 0.00 0.00 0.00 60 1017.4
20260901161256 28 202 1.6 4.8 0.00 0.00 0.00 58 1017.3
20260901160752 27 136 0.0 1.6 0.00 0.00 0.00 61 1017.5
20260901160248 27 103 0.0 3.2 0.00 0.00 0.00 63 1017.5
20260901155747 26 191 4.8 8.0 0.00 0.00 0.00 63 1017.7
20260901155242 26 153 1.6 1.6 0.00 0.00 0.00 65 1017.5
20260901154738 26 156 1.6 3.2 0.00 0.00 0.00 64 1017.6
20260901154232 26 241 4.8 8.0 0.00 0.00 0.00 64 1017.8
20260901153728 26 202 6.4 9.7 0.00 0.00 0.00 64 1017.8
20260901153227 26 117 4.8 4.8 0.00 0.00 0.00 64 1017.7
20260901152721 26 166 3.2 8.0 0.00 0.00 0.00 65 1017.8
20260901152220 25 32 1.6 3.2 0.00 0.00 0.00 65 1017.8
20260901151715 25 220 3.2 4.8 0.00 0.00 0.00 66 1017.9
20260901151215 25 137 1.6 4.8 0.00 0.00 0.00 67 1017.7
20260901150709 25 150 3.2 4.8 0.00 0.00 0.00 69 1017.8
20260901150207 25 119 0.0 4.8 0.00 0.00 0.00 73 1017.9
20260901145705 25 150 1.6 3.2 0.00 0.00 0.00 74 1017.9
20260901145200 24 197 3.2 4.8 0.00 0.00 0.00 73 1017.7
20260901144655 24 198 1.6 3.2 0.00 0.00 0.00 74 1018.0
20260901144150 23 168 3.2 4.8 0.00 0.00 0.00 75 1018.0
20260901143645 23 251 4.8 4.8 0.00 0.00 0.00 75 1017.9
20260901143142 23 288 1.6 8.0 0.00 0.00 0.00 75 1017.9
20260901142638 23 236 4.8 8.0 0.00 0.00 0.00 77 1018.0
20260901142137 23 168 4.8 8.0 0.00 0.00 0.00 77 1017.9
20260901141632 23 173 1.6 4.8 0.00 0.00 0.00 78 1018.1
20260901141131 23 159 1.6 3.2 0.00 0.00 0.00 80 1018.0
20260901140630 23 210 3.2 4.8 0.00 0.00 0.00 79 1018.1
20260901140129 23 107 0.0 4.8 0.00 0.00 0.00 80 1017.9
20260901135624 22 99 1.6 1.6 0.00 0.00 0.00 82 1018.0
20260901135119 22 116 1.6 3.2 0.00 0.00 0.00 83 1017.9
20260901134615 22 133 1.6 3.2 0.00 0.00 0.00 84 1018.1
20260901134110 22 130 0.0 3.2 0.00 0.00 0.00 85 1018.0
20260901133609 21 171 1.6 3.2 0.00 0.00 0.00 86 1018.0
20260901133108 21 214 0.0 3.2 0.00 0.00 0.00 88 1018.0
20260901132603 21 188 0.0 1.6 0.00 0.00 0.00 88 1017.9
20260901132057 21 222 1.6 3.2 0.00 0.00 0.00 87 1017.9
20260901131556 21 196 0.0 3.2 0.00 0.00 0.00 88 1018.0
20260901131051 20 233 4.8 4.8 0.00 0.00 0.00 90 1017.9
20260901130546 20 245 1.6 1.6 0.00 0.00 0.00 93 1017.8
20260901130044 20 198 0.0 0.0 0.00 0.00 0.00 94 1017.7
20260901125543 19 205 0.0 0.0 0.00 0.00 0.00 95 1017.9
20260901125039 19 218 0.0 0.0 0.00 0.00 0.00 95 1017.9
20260901124538 19 211 0.0 1.6 0.00 0.00 0.00 96 1017.9
20260901124033 19 204 0.0 0.0 0.00 0.00 0.00 96 1017.7
20260901123528 18 219 1.6 1.6 0.00 0.00 0.00 96 1017.8
20260901123028 18 188 0.0 1.6 0.00 0.00 0.00 97 1017.7
20260901122526 18 194 0.0 3.2 0.00 0.00 0.00 97 1017.6
20260901122025 18 197 0.0 1.6 0.00 0.00 0.00 97 1017.6
20260901121520 18 248 0.0 0.0 0.00 0.00 0.00 97 1017.7
20260901121016 18 204 0.0 1.6 0.00 0.00 0.00 97 1017.5
20260901120515 18 221 0.0 0.0 0.00 0.00 0.00 97 1017.6
20260901120011 18 194 0.0 0.0 0.00 0.00 0.00 97 1017.4
20260901115506 18 214 1.6 1.6 0.00 0.00 0.00 97 1017.5
20260901115003 18 230 0.0 1.6 0.00 0.00 0.00 97 1017.4
20260901114459 18 244 1.6 1.6 0.00 0.00 0.00 97 1017.3
20260901113956 18 226 0.0 0.0 0.00 0.00 0.00 97 1017.3
20260901113456 18 214 0.0 0.0 0.00 0.00 0.00 96 1017.1
20260901112951 18 213 0.0 0.0 0.00 0.00 0.00 96 1016.9
20260901112446 18 264 0.0 1.6 0.00 0.00 0.00 96 1016.9
20260901111941 18 192 0.0 0.0 0.00 0.00 0.00 96 1016.9
20260901111440 18 170 1.6 1.6 0.00 0.00 0.00 96 1017.0
20260901110938 18 212 0.0 0.0 0.00 0.00 0.00 96 1016.6
20260901110434 18 206 0.0 0.0 0.00 0.00 0.00 97 1016.8
20260901105931 18 208 0.0 0.0 0.00 0.00 0.00 97 1016.6
20260901105426 18 197 0.0 0.0 0.00 0.00 0.00 97 1016.4
20260901104921 18 196 0.0 0.0 0.00 0.00 0.00 97 1016.6
20260901104416 18 212 0.0 0.0 0.00 0.00 0.00 96 1016.5
20260901103912 18 219 0.0 0.0 0.00 0.00 0.00 96 1016.4
20260901103412 18 227 0.0 0.0 0.00 0.00 0.00 96 1016.4
20260901102907 18 236 0.0 0.0 0.00 0.00 0.00 96 1016.4
20260901102401 18 250 0.0 0.0 0.00 0.00 0.00 96 1016.5
20260901101857 18 210 0.0 0.0 0.00 0.00 0.00 96 1016.7
20260901101357 18 222 0.0 0.0 0.00 0.00 0.00 97 1016.6
20260901100856 18 223 0.0 0.0 0.00 0.00 0.00 97 1016.7
20260901100351 18 221 0.0 0.0 0.00 0.00 0.00 97 1016.7
20260901095845 18 215 0.0 0.0 0.00 0.00 0.00 97 1016.5
20260901095342 18 188 0.0 0.0 0.00 0.00 0.00 97 1016.5
20260901094836 18 206 0.0 0.0 0.00 0.00 0.00 97 1016.4
20260901094331 18 231 0.0 0.0 0.00 0.00 0.00 97 1016.6
20260901093826 18 238 0.0 0.0 0.00 0.00 0.00 97 1016.5
20260901093325 18 252 0.0 0.0 0.00 0.00 0.00 97 1016.6
20260901092821 18 254 0.0 0.0 0.00 0.00 0.00 96 1016.4
20260901092317 18 279 0.0 0.0 0.00 0.00 0.00 96 1016.2
20260901091813 18 247 0.0 0.0 0.00 0.00 0.00 96 1016.5
20260901091312 18 248 0.0 0.0 0.00 0.00 0.00 96 1016.2
20260901090808 18 235 0.0 0.0 0.00 0.00 0.00 96 1016.3
20260901090303 18 234 0.0 0.0 0.00 0.00 0.00 95 1016.6
20260901085759 18 246 0.0 0.0 0.00 0.00 0.00 95 1016.5
20260901085253 18 247 0.0 0.0 0.00 0.00 0.00 95 1016.5
20260901084750 18 247 0.0 0.0 0.00 0.00 0.00 95 1016.2
20260901084246 18 247 0.0 0.0 0.00 0.00 0.00 94 1016.4
20260901083746 18 247 0.0 0.0 0.00 0.00 0.00 94 1016.7
20260901083245 18 248 0.0 0.0 0.00 0.00 0.00 94 1016.4
20260901082744 19 254 0.0 0.0 0.00 0.00 0.00 94 1016.5
20260901082239 18 248 0.0 0.0 0.00 0.00 0.00 94 1016.4
20260901081735 19 245 0.0 0.0 0.00 0.00 0.00 94 1016.5
20260901081234 19 245 0.0 0.0 0.00 0.00 0.00 93 1016.4
20260901080730 19 246 0.0 0.0 0.00 0.00 0.00 93 1016.2
20260901080228 19 288 0.0 0.0 0.00 0.00 0.00 93 1016.5
20260901075723 19 242 0.0 0.0 0.00 0.00 0.00 93 1016.7
20260901075218 19 219 0.0 0.0 0.00 0.00 0.00 93 1016.6
20260901074712 19 228 0.0 0.0 0.00 0.00 0.00 92 1016.6
20260901074208 19 225 0.0 0.0 0.00 0.00 0.00 92 1016.5
20260901073704 20 228 0.0 0.0 0.00 0.00 0.00 92 1016.7
20260901073159 20 235 0.0 0.0 0.00 0.00 0.00 92 1016.8
20260901072654 20 239 0.0 0.0 0.00 0.00 0.00 92 1016.8
20260901072149 20 210 0.0 0.0 0.00 0.00 0.00 91 1016.8
20260901071648 19 208 0.0 0.0 0.00 0.00 0.00 91 1016.8
20260901071143 20 208 0.0 0.0 0.00 0.00 0.00 91 1016.7
20260901070637 20 215 0.0 0.0 0.00 0.00 0.00 91 1016.7
20260901070133 20 246 0.0 0.0 0.00 0.00 0.00 90 1016.7
20260901065632 20 248 0.0 0.0 0.00 0.00 0.00 91 1016.7
20260901065127 20 219 0.0 0.0 0.00 0.00 0.00 90 1016.8
20260901064624 20 219 0.0 0.0 0.00 0.00 0.00 90 1017.0
20260901064120 20 218 0.0 0.0 0.00 0.00 0.00 90 1016.9
20260901063616 20 218 0.0 0.0 0.00 0.00 0.00 89 1017.1
20260901063112 20 219 0.0 0.0 0.00 0.00 0.00 89 1017.1
20260901062608 20 203 0.0 0.0 0.00 0.00 0.00 88 1017.1
20260901062103 20 209 0.0 0.0 0.00 0.00 0.00 87 1017.2
20260901061600 20 209 0.0 0.0 0.00 0.00 0.00 86 1017.0
20260901061054 21 210 0.0 0.0 0.00 0.00 0.00 85 1017.0
20260901060549 21 217 0.0 0.0 0.00 0.00 0.00 84 1016.8
20260901060044 21 202 0.0 0.0 0.00 0.00 0.00 84 1016.9
20260901055539 21 195 0.0 0.0 0.00 0.00 0.00 84 1017.0
20260901055036 21 211 0.0 0.0 0.00 0.00 0.00 83 1016.7
20260901054533 21 202 0.0 0.0 0.00 0.00 0.00 83 1016.8
20260901054029 22 208 0.0 0.0 0.00 0.00 0.00 81 1016.7
20260901053525 22 219 1.6 1.6 0.00 0.00 0.00 81 1016.8
20260901053020 22 200 0.0 1.6 0.00 0.00 0.00 80 1016.4
20260901052520 22 218 1.6 3.2 0.00 0.00 0.00 80 1016.6
20260901052020 22 222 0.0 3.2 0.00 0.00 0.00 80 1016.5
20260901051515 22 223 0.0 1.6 0.00 0.00 0.00 80 1016.3
20260901051014 22 201 0.0 1.6 0.00 0.00 0.00 80 1016.3
20260901050509 22 208 0.0 1.6 0.00 0.00 0.00 80 1016.3
20260901050004 22 227 0.0 3.2 0.00 0.00 0.00 81 1016.1
20260901045459 21 267 0.0 0.0 0.00 0.00 0.00 83 1016.1
20260901044954 21 278 0.0 0.0 0.00 0.00 0.00 83 1016.2
20260901044450 21 273 0.0 0.0 0.00 0.00 0.00 84 1016.2
20260901043946 21 273 0.0 0.0 0.00 0.00 0.00 83 1016.0
20260901043442 21 299 1.6 1.6 0.00 0.00 0.00 84 1016.1
20260901042941 21 148 0.0 0.0 0.00 0.00 0.00 84 1016.1
20260901042436 21 207 0.0 0.0 0.00 0.00 0.00 83 1016.0
20260901041931 21 207 0.0 0.0 0.00 0.00 0.00 82 1016.1
20260901041426 21 208 0.0 0.0 0.00 0.00 0.00 82 1016.0
20260901040925 21 209 0.0 0.0 0.00 0.00 0.00 81 1016.1
20260901040420 21 201 0.0 0.0 0.00 0.00 0.00 80 1016.3
20260901035914 22 180 0.0 0.0 0.00 0.00 0.00 78 1016.1
20260901035413 22 180 0.0 0.0 0.00 0.00 0.00 78 1016.3
20260901034911 22 207 0.0 0.0 0.00 0.00 0.00 76 1016.2
20260901034406 22 218 0.0 0.0 0.00 0.00 0.00 75 1016.3
20260901033901 22 229 0.0 0.0 0.00 0.00 0.00 75 1016.5
20260901033401 22 225 0.0 0.0 0.00 0.00 0.00 75 1016.3
20260901032859 22 213 0.0 0.0 0.00 0.00 0.00 76 1016.2
20260901032358 22 226 0.0 0.0 0.00 0.00 0.00 75 1016.2
20260901031854 22 226 0.0 0.0 0.00 0.00 0.00 74 1016.2
20260901031350 22 226 0.0 0.0 0.00 0.00 0.00 73 1016.2
20260901030849 22 226 0.0 0.0 0.00 0.00 0.00 72 1016.0
20260901030345 23 226 0.0 0.0 0.00 0.00 0.00 72 1016.1
20260901025843 23 228 0.0 0.0 0.00 0.00 0.00 70 1016.2
20260901025338 23 243 0.0 0.0 0.00 0.00 0.00 69 1015.9
20260901024833 23 244 0.0 0.0 0.00 0.00 0.00 69 1015.9
20260901024332 23 229 0.0 0.0 0.00 0.00 0.00 69 1016.1
20260901023830 24 229 0.0 0.0 0.00 0.00 0.00 67 1015.8
20260901023326 25 244 0.0 0.0 0.00 0.00 0.00 65 1015.7
20260901022821 25 214 0.0 0.0 0.00 0.00 0.00 64 1015.7
20260901022317 24 212 0.0 3.2 0.00 0.00 0.00 64 1015.8
20260901021812 24 217 0.0 0.0 0.00 0.00 0.00 65 1015.9
20260901021308 24 202 0.0 0.0 0.00 0.00 0.00 65 1015.6
20260901020802 25 207 0.0 0.0 0.00 0.00 0.00 65 1015.7
20260901020257 25 190 0.0 0.0 0.00 0.00 0.00 65 1015.7
20260901015752 25 213 0.0 3.2 0.00 0.00 0.00 63 1015.7
20260901015248 25 207 0.0 0.0 0.00 0.00 0.00 63 1015.7
20260901014747 25 209 0.0 0.0 0.00 0.00 0.00 63 1015.5
20260901014243 25 239 1.6 1.6 0.00 0.00 0.00 64 1015.6
20260901013739 25 245 0.0 0.0 0.00 0.00 0.00 65 1015.2
20260901013234 25 289 0.0 0.0 0.00 0.00 0.00 64 1015.4
20260901012730 26 294 0.0 0.0 0.00 0.00 0.00 64 1015.1
20260901012229 26 267 0.0 0.0 0.00 0.00 0.00 62 1015.2
20260901011726 26 300 0.0 0.0 0.00 0.00 0.00 62 1014.9
20260901011220 26 278 0.0 0.0 0.00 0.00 0.00 62 1015.0
20260901010714 26 274 0.0 0.0 0.00 0.00 0.00 60 1015.1
20260901010209 26 243 0.0 0.0 0.00 0.00 0.00 58 1015.4
20260901005708 26 243 0.0 0.0 0.00 0.00 0.00 57 1015.0
20260901005204 26 254 0.0 0.0 0.00 0.00 0.00 58 1015.0
20260901004703 26 231 0.0 0.0 0.00 0.00 0.00 57 1014.9
20260901004157 26 231 0.0 0.0 0.00 0.00 0.00 57 1014.9
20260901003652 27 231 0.0 0.0 0.00 0.00 0.00 59 1015.1
20260901003151 27 219 0.0 0.0 0.00 0.00 0.00 58 1015.0
20260901002645 27 215 0.0 0.0 0.00 0.00 0.00 59 1015.0
20260901002140 28 216 0.0 0.0 0.00 0.00 0.00 58 1015.1
20260901001636 28 212 0.0 0.0 0.00 0.00 0.00 55 1014.9
20260901001131 29 213 0.0 0.0 0.00 0.00 0.00 55 1014.8
20260901000626 29 213 0.0 0.0 0.00 0.00 0.00 57 1014.9
20260901000121 29 222 0.0 0.0 0.00 0.00 0.00 56 1014.7
20260831235615 29 204 0.0 0.0 0.00 0.00 0.00 55 1014.8
20260831235111 30 230 0.0 0.0 0.00 0.00 0.00 55 1014.9
20260831234610 30 229 0.0 0.0 0.00 0.00 0.00 53 1014.7
20260831234106 30 230 0.0 0.0 0.00 0.00 0.00 53 1014.8
20260831233601 30 7 1.6 1.6 0.00 0.00 0.00 50 1014.6
20260831233056 30 205 0.0 1.6 0.00 0.00 0.00 49 1014.6
20260831232551 31 239 1.6 1.6 0.00 0.00 0.00 48 1014.6
20260831232047 31 186 0.0 3.2 0.00 0.00 0.00 47 1014.6
20260831231543 31 15 3.2 3.2 0.00 0.00 0.00 44 1014.6
20260831231039 31 320 1.6 1.6 0.00 0.00 0.00 43 1014.7
20260831230534 31 201 1.6 1.6 0.00 0.00 0.00 43 1014.7
20260831230034 31 232 1.6 3.2 0.00 0.00 0.00 44 1014.6
20260831225529 31 237 1.6 9.7 0.00 0.00 0.00 43 1014.6
20260831225024 31 194 1.6 3.2 0.00 0.00 0.00 43 1014.6
20260831224519 31 210 0.0 3.2 0.00 0.00 0.00 45 1014.6
20260831224014 31 212 0.0 3.2 0.00 0.00 0.00 47 1014.3
20260831223509 31 244 0.0 3.2 0.00 0.00 0.00 48 1014.5
20260831223006 31 233 1.6 1.6 0.00 0.00 0.00 49 1014.5
20260831222502 31 219 0.0 1.6 0.00 0.00 0.00 47 1014.5
20260831222001 31 249 1.6 3.2 0.00 0.00 0.00 45 1014.3
20260831221457 31 215 0.0 0.0 0.00 0.00 0.00 47 1014.2
20260831220952 32 354 3.2 4.8 0.00 0.00 0.00 43 1014.1
20260831220447 32 199 1.6 1.6 0.00 0.00 0.00 43 1014.5
20260831215942 32 219 1.6 4.8 0.00 0.00 0.00 42 1014.3
20260831215438 32 211 0.0 3.2 0.00 0.00 0.00 45 1014.3
20260831214934 32 214 1.6 1.6 0.00 0.00 0.00 46 1014.2
20260831214431 32 212 1.6 8.0 0.00 0.00 0.00 45 1014.2
20260831213927 32 207 1.6 4.8 0.00 0.00 0.00 48 1014.1
20260831213423 32 245 1.6 3.2 0.00 0.00 0.00 48 1014.1
20260831212923 32 237 1.6 3.2 0.00 0.00 0.00 48 1014.1
20260831212420 32 193 0.0 1.6 0.00 0.00 0.00 49 1014.0
20260831211919 32 255 6.4 8.0 0.00 0.00 0.00 50 1014.0
20260831211414 32 348 4.8 9.7 0.00 0.00 0.00 50 1013.8
20260831210908 32 274 3.2 4.8 0.00 0.00 0.00 49 1014.1
20260831210403 32 198 1.6 9.7 0.00 0.00 0.00 51 1014.1
20260831205859 32 130 3.2 8.0 0.00 0.00 0.00 50 1013.9
20260831205354 32 200 4.8 4.8 0.00 0.00 0.00 52 1014.2
20260831204849 32 186 1.6 3.2 0.00 0.00 0.00 51 1014.1
20260831204348 32 196 4.8 4.8 0.00 0.00 0.00 48 1014.2
20260831203848 32 157 1.6 8.0 0.00 0.00 0.00 50 1014.1
20260831203343 32 350 1.6 3.2 0.00 0.00 0.00 50 1014.2
20260831202841 32 60 3.2 4.8 0.00 0.00 0.00 50 1014.0
20260831202336 32 198 1.6 4.8 0.00 0.00 0.00 49 1014.2
20260831201836 32 202 1.6 8.0 0.00 0.00 0.00 50 1014.0
20260831201335 32 270 3.2 11.3 0.00 0.00 0.00 51 1014.2
20260831200831 32 193 1.6 8.0 0.00 0.00 0.00 53 1014.2
20260831200325 32 334 3.2 11.3 0.00 0.00 0.00 54 1014.1
20260831195821 32 304 3.2 4.8 0.00 0.00 0.00 53 1014.1
20260831195317 32 220 1.6 4.8 0.00 0.00 0.00 53 1013.8
20260831194812 32 330 3.2 9.7 0.00 0.00 0.00 56 1013.8
20260831194307 32 227 1.6 4.8 0.00 0.00 0.00 55 1013.6
20260831193806 32 184 0.0 3.2 0.00 0.00 0.00 56 1013.9
20260831193301 32 172 1.6 8.0 0.00 0.00 0.00 57 1013.8
20260831192756 31 296 3.2 4.8 0.00 0.00 0.00 57 1014.1
20260831192251 31 44 1.6 11.3 0.00 0.00 0.00 58 1014.0
20260831191747 31 90 3.2 8.0 0.00 0.00 0.00 59 1014.0
20260831191244 31 118 3.2 3.2 0.00 0.00 0.00 56 1013.9
20260831190739 31 181 0.0 1.6 0.00 0.00 0.00 60 1013.8